RH
40 43 46 49 51 52 51 52 54 58 59 56 54 56 57 58 56 55 62 68 66 68 71 71 71 68 65 70 76 76 82 87 88 89 91 91 90 86 79 74 72 72 70 68 67 65 63 62 61 60 58 57 57 55 55 56 56 55 54 53 53 54 55 55 55 54 53 52 49 44 40 39 38 38 39 41 43 43 43 43 44 45 46 46 46 47 47
40 41 42 47 52 53 52 54 56 58 59 58 56 55 54 55 56 56 61 68 69 70 73 74 74 72 67 67 73 77 80 84 85 86 88 90 90 89 85 82 80 77 75 73 72 71 68 67 66 65 65 65 65 64 63 61 61 60 60 58 57 56 57 58 58 56 54 53 50 45 42 40 40 39 40 40 41 42 43 44 46 46 47 46 45 46 47
39 40 42 45 48 50 50 51 55 58 59 59 58 57 54 53 55 55 59 71 75 71 72 75 76 76 72 66 69 77 81 83 84 83 85 88 90 89 87 86 85 83 80 79 78 76 74 72 71 70 71 72 74 76 75 73 70 68 66 65 64 63 64 65 64 61 57 54 52 47 43 42 42 41 40 40 40 42 44 46 47 47 48 48 47 48 48
34 38 43 45 46 48 48 46 49 55 58 57 57 58 56 53 55 56 59 71 78 73 73 77 77 77 75 68 66 72 79 84 85 83 83 86 88 88 88 87 87 86 85 84 83 81 80 77 75 74 75 76 78 80 82 82 80 77 75 73 71 70 70 72 74 73 68 62 57 52 48 46 44 42 42 42 43 44 46 48 48 49 50 51 50 51 50
29 33 40 46 47 47 47 46 48 54 58 59 58 58 58 55 54 54 57 68 78 76 75 78 77 75 75 72 70 71 75 81 83 81 80 82 84 86 87 87 88 87 86 86 86 86 84 82 80 79 79 79 79 80 82 82 82 82 81 80 80 79 77 76 78 81 82 78 72 64 58 55 53 48 44 42 44 47 49 50 51 53 58 59 54 51 51
29 32 36 41 43 43 45 48 52 55 58 60 60 59 59 56 53 52 56 68 77 77 75 76 76 76 76 76 76 74 73 76 80 81 80 80 81 82 84 86 88 89 88 88 88 87 87 85 84 83 82 82 81 81 80 80 82 83 83 82 83 84 82 80 80 83 85 85 84 77 68 65 67 64 52 46 48 50 52 54 54 58 68 69 61 56 57
30 33 35 36 38 42 45 48 51 55 58 59 58 58 58 57 54 53 58 68 74 76 77 77 76 77 77 76 77 75 72 75 79 81 80 81 81 81 83 85 85 86 86 86 86 86 86 86 86 86 86 85 83 82 81 81 82 84 85 85 84 84 85 86 86 87 86 86 89 87 76 69 75 80 71 61 57 54 56 61 59 59 68 72 65 63 65
33 34 35 35 37 41 44 44 45 50 55 58 58 58 56 55 54 54 59 66 71 73 75 76 75 76 75 74 76 75 73 78 82 79 80 82 81 81 82 82 80 79 80 81 83 83 83 84 85 86 86 86 86 85 85 84 84 84 85 86 86 86 86 87 89 90 88 86 90 91 84 75 77 85 83 76 67 60 64 70 64 60 66 72 69 68 71
38 37 37 36 36 38 41 42 44 47 51 54 57 58 56 54 54 56 59 64 69 70 72 73 74 75 73 72 75 74 72 77 82 83 84 84 82 83 83 82 80 79 79 80 81 81 81 82 82 83 84 86 88 89 89 89 89 88 87 87 87 88 87 89 91 92 89 88 89 91 89 84 84 88 86 81 75 71 71 73 70 67 70 73 73 73 74
42 42 42 40 37 36 37 39 41 44 48 50 53 56 56 55 58 60 60 63 68 69 70 71 72 73 72 71 73 73 70 75 83 88 87 84 82 85 85 83 81 79 79 81 81 80 81 82 82 83 84 86 87 88 89 90 89 90 91 91 90 90 90 90 91 92 93 93 92 91 90 89 90 92 89 84 83 81 78 78 77 76 77 78 79 79 79
40 41 43 43 38 35 36 36 36 40 46 51 53 55 54 55 60 63 62 63 66 68 71 72 69 70 71 68 67 67 66 72 83 87 86 83 82 83 83 81 81 79 78 80 81 81 81 81 81 83 83 83 83 84 87 90 92 93 93 93 94 94 95 94 93 94 97 98 94 91 90 91 92 93 91 88 87 86 84 83 82 80 80 81 82 83 83
37 38 40 41 37 35 37 36 34 37 42 49 54 54 53 55 61 64 64 65 65 67 71 71 67 69 71 65 62 63 63 69 79 81 81 83 82 81 81 80 80 80 78 78 79 80 80 79 79 80 80 80 83 84 85 88 91 93 93 93 96 97 96 95 95 95 96 96 93 92 92 93 93 93 92 89 88 88 87 85 82 80 80 80 82 84 85
39 39 38 38 36 35 36 36 36 36 39 47 54 55 55 59 63 65 66 67 66 67 70 69 66 70 72 68 67 66 62 65 71 73 76 79 78 78 79 77 78 79 77 77 78 79 80 80 80 80 79 81 83 85 86 86 87 88 89 91 93 94 92 93 94 94 93 92 92 92 92 92 93 93 91 89 87 87 87 85 83 81 82 82 83 85 86
40 41 40 39 36 35 37 39 39 38 39 45 50 53 58 63 65 67 68 70 69 68 71 71 68 70 72 72 73 70 62 60 63 65 70 73 70 71 74 74 75 78 78 79 82 82 82 81 81 80 79 79 80 80 83 86 85 81 82 86 89 90 90 90 90 89 88 88 90 91 91 90 91 90 89 87 87 88 88 87 86 84 84 85 84 83 84
42 44 45 42 38 39 41 42 41 40 41 43 45 51 60 65 66 67 69 72 72 71 72 73 71 71 71 72 75 71 63 60 61 62 65 67 65 65 68 69 71 73 74 78 81 85 88 87 84 83 81 79 78 76 79 83 83 80 80 84 87 88 89 90 90 90 89 89 89 89 87 85 86 87 88 89 91 92 91 90 89 87 86 86 84 82 82
43 44 44 41 40 42 44 42 41 42 43 43 44 50 59 64 66 69 71 72 73 73 75 77 74 71 71 72 72 68 61 60 59 58 59 62 62 62 63 64 65 66 70 73 73 76 82 84 85 87 87 82 79 78 79 81 82 82 82 83 84 86 87 86 85 86 86 84 83 83 82 80 81 83 87 89 90 91 91 90 89 88 87 86 84 81 78
43 43 43 43 45 47 46 45 44 44 45 46 47 51 57 63 66 69 72 74 75 76 78 79 76 73 72 71 68 64 61 60 59 55 55 57 58 59 60 61 61 63 68 71 70 68 70 72 77 81 81 77 75 76 77 78 80 80 77 74 75 76 77 77 76 76 77 76 75 75 77 78 78 79 82 85 87 88 89 88 86 84 84 84 84 82 79
40 42 44 45 47 49 49 49 49 49 49 51 51 52 57 62 65 68 72 76 77 78 79 78 76 75 72 68 66 65 64 62 59 56 56 55 55 55 57 58 59 61 64 67 68 67 65 65 68 71 71 71 71 72 73 73 74 73 70 69 70 71 72 74 73 72 72 72 73 74 75 76 77 76 77 79 82 82 82 81 80 79 78 79 79 77 75
40 41 45 47 48 51 53 54 54 54 55 55 55 55 58 62 64 67 71 76 79 80 78 77 77 76 72 66 64 65 66 63 59 56 55 55 53 53 54 55 56 57 60 63 65 63 60 58 59 63 67 71 73 74 73 72 71 70 69 68 69 70 69 69 69 68 68 69 70 69 68 68 67 66 66 66 67 67 66 67 69 70 70 70 69 68 67
44 44 47 49 49 52 55 56 57 58 59 58 58 58 60 63 66 66 69 75 81 83 82 81 78 76 73 68 64 65 66 63 60 57 56 55 53 52 52 52 52 51 53 57 58 57 57 57 57 59 63 68 70 71 71 70 69 69 69 69 69 69 68 67 66 66 66 65 63 61 59 57 56 55 54 54 54 53 53 54 55 57 58 60 60 61 61
46 46 46 47 49 53 56 58 58 59 60 59 60 61 63 65 67 67 68 74 82 86 86 86 83 78 75 71 67 66 66 64 63 62 59 57 55 53 52 53 52 51 52 53 54 56 58 59 60 60 60 62 64 66 66 66 64 64 64 64 64 64 63 62 62 61 60 59 58 56 55 55 54 53 52 51 50 50 48 47 48 48 49 49 49 49 49
41 43 45 47 49 52 55 56 57 59 60 60 60 62 64 64 64 67 73 80 85 86 88 92 91 84 77 74 71 69 68 68 69 68 64 61 59 57 56 57 57 57 58 58 58 59 60 59 58 57 55 55 56 59 60 60 59 57 57 57 57 56 56 55 55 55 54 54 54 53 52 52 51 51 50 49 48 48 46 45 45 45 45 44 43 42 42
38 41 45 48 50 52 53 55 60 65 64 62 62 64 65 63 62 69 80 88 87 85 86 93 95 88 80 77 77 76 74 74 73 72 69 66 63 60 59 59 59 59 61 62 62 61 61 60 59 57 56 55 56 57 57 57 57 56 55 55 55 55 54 53 52 52 51 51 50 49 49 48 47 46 45 44 44 43 43 42 42 42 42 42 41 41 40
38 39 44 47 49 48 49 55 67 70 64 60 63 65 65 64 64 71 83 91 92 91 91 94 96 93 88 84 82 81 79 76 74 71 69 67 64 61 61 60 58 57 59 61 63 63 62 61 60 59 58 57 56 57 56 56 55 54 54 54 53 52 52 51 50 49 48 47 47 46 45 45 43 42 41 41 40 39 39 39 39 39 40 40 40 39 39
39 41 44 45 44 42 42 51 65 70 65 59 60 63 64 65 70 78 85 89 93 96 96 95 95 94 92 89 86 83 78 74 72 70 69 68 66 66 67 65 62 60 59 59 61 61 60 60 59 57 55 53 52 51 50 49 48 48 47 47 47 46 46 45 44 44 43 42 41 41 41 41 40 40 39 38 38 37 37 37 37 38 38 38 38 38 37
42 43 44 41 39 39 42 48 58 68 69 62 57 59 63 67 75 84 88 88 91 93 93 93 93 92 91 89 85 81 76 73 72 72 71 70 69 69 69 68 66 63 60 57 55 54 52 51 50 48 46 44 42 41 41 41 41 42 42 42 42 41 41 41 40 39 39 37 36 35 35 35 35 34 33 32 31 31 31 32 32 33 35 35 36 36 35
44 45 44 42 40 40 45 50 54 61 67 65 60 59 63 68 75 82 83 83 86 87 85 82 80 80 84 83 75 68 67 65 64 65 64 62 61 60 59 58 57 54 51 48 45 44 42 41 39 38 36 34 33 32 32 32 32 32 32 32 32 32 31 31 31 30 30 30 29 28 27 26 26 25 24 23 22 21 21 21 22 23 25 28 30 31 31
47 46 45 43 40 41 48 55 56 57 61 65 63 62 62 65 71 75 75 75 78 79 78 77 73 69 70 70 62 55 53 53 51 50 49 48 47 47 46 45 43 42 40 39 38 38 37 37 36 35 33 32 31 29 28 27 27 27 26 26 26 26 25 25 25 24 24 24 24 23 22 22 21 20 19 18 17 17 16 17 17 17 18 21 24 26 28
48 48 46 42 40 42 49 56 59 59 58 60 61 61 60 61 63 65 65 66 68 67 67 70 69 61 56 54 51 48 48 47 46 45 43 42 42 42 40 39 37 36 35 36 36 36 36 35 35 34 33 31 30 29 28 28 27 26 26 25 25 25 24 24 24 24 24 24 24 23 23 23 22 21 20 19 18 17 16 17 18 19 19 21 25 27 29
49 49 48 46 44 45 48 50 53 55 56 56 56 57 57 57 57 57 57 58 59 59 57 58 58 54 49 48 48 46 45 45 44 42 40 38 38 38 38 37 37 36 35 35 35 34 34 32 31 29 28 27 26 25 24 23 22 22 21 21 21 21 22 22 22 23 23 23 23 23 23 23 23 22 22 21 19 18 17 17 18 19 20 21 24 28 31
51 49 49 49 47 47 49 49 48 49 51 52 52 52 52 50 49 49 49 48 48 49 49 48 47 45 43 42 41 40 39 39 38 37 36 36 36 36 35 34 32 31 31 30 29 28 27 26 25 23 22 20 19 17 15 15 14 14 13 14 14 15 16 16 18 18 19 20 20 21 21 22 23 23 23 23 23 21 20 18 17 18 19 21 23 25 28
53 50 49 50 50 49 50 50 49 48 48 47 46 47 46 44 43 42 42 40 41 42 42 41 40 39 38 36 35 34 34 34 33 33 33 32 31 30 27 25 24 23 23 23 22 21 20 19 18 17 16 14 13 12 10 10 9 8 8 9 9 9 10 11 12 13 14 16 17 18 18 19 21 22 23 24 26 26 26 25 23 21 20 21 23 25 27
53 52 51 50 50 50 50 49 48 47 46 42 40 40 40 40 40 40 38 37 38 39 37 35 34 33 32 32 32 32 32 31 31 30 29 26 24 22 21 20 21 20 19 18 17 15 14 13 12 11 10 9 9 8 8 7 7 7 7 7 7 7 8 9 9 10 12 14 15 16 16 17 18 19 20 22 23 25 27 28 28 27 26 24 23 24 26
52 51 48 46 45 46 47 47 45 43 42 40 38 37 36 36 37 36 34 34 34 34 33 32 32 32 32 32 31 31 30 29 28 27 25 23 22 22 21 20 18 17 15 14 12 11 10 10 9 9 9 9 9 9 9 9 10 11 11 12 13 13 13 13 13 14 15 16 16 15 15 16 17 18 19 19 20 21 22 23 25 27 29 29 28 26 26
54 51 47 45 42 42 44 45 44 42 40 39 38 36 34 34 34 32 32 32 32 33 34 35 36 36 35 33 31 30 28 25 23 22 22 22 21 21 20 19 17 15 13 11 10 10 10 10 11 11 11 11 12 13 13 13 14 16 17 18 19 20 20 20 21 21 21 21 20 18 17 17 16 16 17 17 18 19 19 19 20 22 24 27 31 33 32
55 52 50 48 46 44 44 45 46 44 41 40 39 37 36 35 34 33 34 34 34 35 36 38 38 37 34 30 28 26 24 22 21 21 21 21 20 20 20 19 17 14 12 12 12 13 13 13 13 13 13 14 15 16 16 16 16 17 17 17 18 18 19 19 20 20 20 20 20 20 18 18 17 17 16 16 16 17 17 17 17 18 19 21 26 33 35
53 51 49 47 46 47 47 46 46 46 44 42 40 39 39 38 37 37 38 38 37 37 38 38 38 36 32 29 27 25 24 22 22 22 21 21 22 21 20 18 16 14 13 14 15 15 15 15 15 15 16 17 17 17 18 18 18 18 18 18 18 18 18 18 18 19 19 19 19 19 19 19 20 20 20 19 19 18 18 18 19 19 19 19 21 27 33
50 48 45 43 43 45 46 45 45 45 44 42 42 42 41 42 42 42 41 40 39 38 38 38 37 35 32 28 26 25 24 23 23 23 23 23 21 19 17 14 13 14 14 15 15 15 16 17 18 18 19 19 19 19 19 19 19 18 18 19 19 20 20 21 21 20 20 20 20 20 20 20 22 22 22 22 22 21 21 21 20 20 20 20 20 24 31
47 44 41 39 40 42 43 42 43 42 41 41 43 44 44 44 44 44 43 41 40 39 39 39 38 35 31 28 26 25 24 24 25 24 22 19 17 15 13 13 14 14 15 15 16 17 19 19 19 19 18 17 17 17 17 17 17 17 17 18 20 20 22 22 22 23 24 25 24 23 22 22 23 22 22 22 23 23 23 23 23 22 23 24 26 29 33
42 40 39 39 40 40 41 41 40 40 40 40 41 43 45 46 45 44 43 42 41 41 41 40 37 32 29 27 25 25 25 26 24 21 17 15 14 14 14 15 16 16 17 18 19 19 19 19 17 16 15 15 15 15 14 14 15 16 17 19 20 21 23 24 24 25 26 27 26 26 26 26 26 26 26 26 27 27 27 27 27 28 29 31 34 37 38
40 40 40 40 40 39 40 41 40 40 41 41 41 43 44 45 44 43 42 42 42 43 43 40 36 32 28 26 26 27 27 24 20 16 14 15 16 15 15 17 18 19 19 19 19 18 17 16 15 14 14 13 13 12 13 14 15 16 18 19 21 23 25 26 26 26 27 27 27 27 28 29 29 30 31 31 31 31 31 31 31 33 35 36 37 39 39
42 42 42 43 42 42 43 43 43 43 44 44 43 44 44 43 42 42 43 43 44 44 43 40 36 31 27 27 27 27 24 19 16 15 17 18 17 16 17 18 19 18 18 17 16 15 15 14 14 14 13 12 12 12 13 15 16 17 18 20 23 25 26 27 27 27 27 27 27 28 28 30 31 31 32 33 34 34 34 34 35 37 40 41 41 41 42
46 46 46 46 47 47 46 46 46 47 47 46 45 45 44 43 43 43 43 44 44 43 41 38 33 29 28 28 26 22 18 16 16 18 18 17 17 16 16 16 16 16 16 16 16 15 15 15 14 14 13 12 12 13 14 15 16 17 19 22 25 27 27 27 26 26 26 25 26 27 28 31 33 34 34 35 36 37 38 38 39 41 43 44 45 46 47
48 49 50 51 50 49 49 50 50 50 49 47 46 45 44 44 45 44 44 44 43 41 38 35 31 29 27 24 20 17 16 17 18 18 17 17 17 16 16 16 16 16 16 16 16 16 16 16 16 15 14 14 14 14 15 16 17 18 21 23 25 26 27 26 26 26 25 26 26 28 30 32 35 37 37 38 38 39 41 43 44 45 45 47 49 51 52
50 50 52 53 52 52 52 53 53 52 50 47 46 46 47 47 47 46 45 44 42 40 37 32 28 24 21 18 16 16 17 18 18 18 17 17 16 16 17 17 17 18 18 18 18 18 18 18 17 16 15 15 16 16 17 18 20 21 23 24 25 25 26 26 26 26 27 27 29 30 32 35 38 39 39 39 39 39 42 45 47 48 48 49 52 56 58
56 53 52 54 54 54 54 54 53 52 51 50 49 49 50 49 48 47 46 44 41 37 32 26 21 18 16 15 16 18 18 18 18 18 17 17 17 18 19 19 19 19 19 20 20 20 20 19 19 18 18 18 18 18 19 20 22 24 25 25 25 26 27 27 27 27 28 30 31 31 33 36 39 41 40 40 39 39 41 43 46 49 51 53 56 59 62
59 57 56 57 58 59 57 54 53 53 54 53 52 51 51 50 49 47 45 42 37 31 25 20 17 16 16 18 19 19 19 19 19 19 18 19 19 20 20 20 20 21 21 22 23 23 22 21 20 20 21 20 20 19 19 20 21 23 24 25 26 26 27 27 27 27 28 29 31 32 35 38 41 43 43 43 42 43 44 44 45 48 52 55 57 61 64
60 62 62 62 63 63 62 59 57 56 55 54 52 52 51 50 48 45 41 37 31 25 21 19 18 18 19 20 21 21 21 21 20 20 21 21 21 21 21 22 22 23 24 25 25 25 24 23 23 23 23 22 20 19 19 19 20 21 22 24 24 24 24 24 24 25 26 28 31 34 37 42 45 46 47 47 48 50 52 52 52 54 56 56 57 61 66
63 67 68 67 66 67 67 65 62 59 56 54 53 52 51 49 47 43 37 31 26 23 21 20 20 21 22 22 22 21 21 21 22 22 23 23 23 23 23 24 25 26 27 27 27 26 26 25 25 25 23 22 21 20 20 21 21 22 22 23 23 23 23 23 23 23 24 26 28 32 37 42 46 49 51 53 55 57 58 59 58 58 58 59 59 61 66
64 68 70 69 69 69 68 65 62 58 56 55 54 53 52 50 45 40 34 29 26 25 23 23 23 24 24 23 22 22 22 23 24 24 25 24 24 25 25 26 28 29 29 30 29 29 28 28 28 26 24 22 22 21 22 22 23 23 24 25 25 26 27 27 27 27 26 27 28 31 35 38 42 46 49 53 57 60 62 62 61 60 60 62 62 63 65
70 72 72 71 70 69 66 62 59 57 56 56 55 54 52 49 45 39 34 31 30 28 27 26 26 26 25 23 23 24 25 25 26 26 27 26 26 27 28 29 30 31 32 32 32 32 31 31 29 27 24 24 23 23 24 24 25 25 26 27 28 29 30 31 31 32 32 32 33 34 37 40 43 46 46 48 51 55 59 61 60 60 62 65 67 68 69
75 75 74 73 72 70 66 62 59 58 57 56 55 54 53 51 47 42 37 34 32 30 29 28 28 27 26 26 26 27 27 28 28 28 28 28 29 29 31 32 33 34 35 34 34 34 33 32 30 27 25 25 25 25 26 27 27 28 28 29 31 32 33 34 35 35 36 37 38 41 43 46 49 52 53 52 51 53 56 56 56 57 60 62 65 69 73